EW7130 Weather Reports


time (UTC)temp
C
wind
direction
speed
KPH
gust
KPH
rain 1hr
cm
rain 24hr
cm
rain mn
cm
humidity
%
barometer
mb
20260504184644 23 262 14.5 22.5 0.00 0.30 0.30 52 1021.6
20260504184139 23 301 8.0 12.9 0.00 0.30 0.30 52 1021.9
20260504183636 23 298 12.9 16.1 0.00 0.30 0.30 52 1021.7
20260504183134 23 19 4.8 16.1 0.00 0.30 0.30 53 1021.7
20260504182631 23 346 6.4 9.7 0.00 0.30 0.30 52 1021.9
20260504182128 23 317 11.3 16.1 0.00 0.30 0.30 53 1021.8
20260504181626 22 353 8.0 16.1 0.00 0.30 0.30 55 1022.4
20260504181123 23 318 8.0 9.7 0.00 0.30 0.30 56 1021.8
20260504180622 23 301 8.0 17.7 0.00 0.30 0.30 56 1022.1
20260504180121 23 76 0.0 4.8 0.00 0.30 0.30 64 1022.2
20260504175617 21 346 1.6 8.0 0.00 0.30 0.30 63 1022.5
20260504175114 21 354 4.8 12.9 0.00 0.30 0.30 59 1022.3
20260504174612 21 351 8.0 12.9 0.00 0.30 0.30 60 1022.5
20260504174108 22 348 11.3 17.7 0.00 0.30 0.30 59 1022.3
20260504173605 22 34 0.0 8.0 0.00 0.30 0.30 62 1022.5
20260504173103 21 356 8.0 17.7 0.00 0.30 0.30 60 1022.5
20260504172559 22 302 14.5 20.9 0.00 0.30 0.30 60 1022.7
20260504172056 22 4 6.4 9.7 0.00 0.30 0.30 57 1022.6
20260504171552 23 271 1.6 3.2 0.00 0.30 0.30 61 1022.6
20260504171049 22 1 1.6 3.2 0.00 0.30 0.30 60 1022.9
20260504170545 21 52 1.6 8.0 0.00 0.30 0.30 61 1023.0
20260504150929 16 113 3.2 4.8 0.00 0.30 0.30 89 1024.8
20260504150426 15 47 1.6 3.2 0.00 0.30 0.30 90 1025.0
20260504140846 12 99 1.6 3.2 0.00 0.30 0.30 99 1025.4
20260504140342 12 72 0.0 4.8 0.00 0.30 0.30 99 1025.7
20260504130811 7 66 0.0 1.6 0.00 0.30 0.30 99 1026.7
20260504130307 7 68 0.0 0.0 0.00 0.30 0.30 99 1026.2
20260504120231 7 78 0.0 0.0 0.00 0.00 0.00 97 1026.8
20260504110658 6 77 0.0 0.0 0.00 0.00 0.00 99 1025.1
20260504110154 6 77 0.0 0.0 0.00 0.00 0.00 99 1025.3
20260504100119 6 74 0.0 0.0 0.00 0.00 0.00 97 1024.9
20260504081512 6 70 0.0 0.0 0.00 0.00 0.00 95 1025.8
20260504081007 5 70 0.0 0.0 0.00 0.00 0.00 95 1025.8
20260504080504 6 70 0.0 0.0 0.00 0.00 0.00 95 1025.7
20260504050317 6 67 0.0 0.0 0.00 0.00 0.00 89 1027.0
20260504045814 6 67 0.0 0.0 0.00 0.00 0.00 89 1026.9
20260504045314 6 67 0.0 0.0 0.00 0.00 0.00 89 1027.2
20260504044812 6 67 0.0 0.0 0.00 0.00 0.00 89 1026.9
20260504044309 6 67 0.0 0.0 0.00 0.00 0.00 88 1026.9
20260504043806 6 67 0.0 0.0 0.00 0.00 0.00 88 1026.9
20260504043303 6 67 0.0 0.0 0.00 0.00 0.00 89 1026.8
20260504042801 6 67 0.0 0.0 0.00 0.00 0.00 89 1026.9
20260504042257 6 67 0.0 0.0 0.00 0.00 0.00 89 1026.9
20260504041753 6 67 0.0 0.0 0.00 0.00 0.00 87 1026.7
20260504041249 6 67 0.0 0.0 0.00 0.00 0.00 87 1026.3
20260504040745 7 67 0.0 0.0 0.00 0.00 0.00 87 1026.7
20260504040243 7 67 0.0 0.0 0.00 0.00 0.00 87 1026.4
20260504035739 7 67 0.0 0.0 0.00 0.00 0.00 87 1026.3
20260504035236 6 67 0.0 0.0 0.00 0.00 0.00 87 1026.6
20260504034734 6 67 0.0 0.0 0.00 0.00 0.00 88 1026.3
20260504034231 6 67 0.0 0.0 0.00 0.00 0.00 87 1026.4
20260504033729 6 67 0.0 0.0 0.00 0.00 0.00 88 1026.1
20260504033226 6 67 0.0 0.0 0.00 0.00 0.00 87 1026.1
20260504032723 6 67 0.0 0.0 0.00 0.00 0.00 87 1026.2
20260504032220 6 67 0.0 0.0 0.00 0.00 0.00 87 1026.4
20260504031716 6 67 0.0 0.0 0.00 0.00 0.00 87 1026.3
20260504031214 6 67 0.0 0.0 0.00 0.00 0.00 87 1025.9
20260504030709 6 67 0.0 0.0 0.00 0.00 0.00 87 1026.3
20260504030207 6 67 0.0 0.0 0.00 0.00 0.00 87 1026.1
20260504025703 6 66 0.0 0.0 0.00 0.00 0.00 88 1026.2
20260504025200 6 66 0.0 0.0 0.00 0.00 0.00 88 1026.4
20260504024657 6 66 0.0 0.0 0.00 0.00 0.00 88 1026.3
20260504024153 6 66 0.0 0.0 0.00 0.00 0.00 87 1026.2
20260504023650 6 66 0.0 0.0 0.00 0.00 0.00 87 1026.1
20260504023146 6 66 0.0 0.0 0.00 0.00 0.00 86 1026.0
20260504022643 6 66 0.0 0.0 0.00 0.00 0.00 86 1025.8
20260504022138 7 66 0.0 0.0 0.00 0.00 0.00 85 1026.0
20260504021637 7 66 0.0 0.0 0.00 0.00 0.00 84 1025.7
20260504021133 7 66 0.0 0.0 0.00 0.00 0.00 83 1025.8
20260504020630 7 66 0.0 0.0 0.00 0.00 0.00 83 1025.8
20260504020126 7 66 0.0 0.0 0.00 0.00 0.00 82 1025.9
20260504015623 7 66 0.0 0.0 0.00 0.00 0.00 81 1025.9
20260504015119 7 66 0.0 0.0 0.00 0.00 0.00 80 1025.9
20260504014615 8 66 0.0 0.0 0.00 0.00 0.00 80 1025.9
20260504014113 8 66 0.0 0.0 0.00 0.00 0.00 79 1025.5
20260504013610 8 66 0.0 0.0 0.00 0.00 0.00 78 1025.8
20260504013107 8 66 0.0 0.0 0.00 0.00 0.00 78 1025.6
20260504012604 8 66 0.0 0.0 0.00 0.00 0.00 77 1025.5
20260504012102 8 66 0.0 0.0 0.00 0.00 0.00 77 1025.5
20260504011559 8 66 0.0 0.0 0.00 0.00 0.00 77 1025.7
20260504011055 9 66 0.0 0.0 0.00 0.00 0.00 76 1025.4
20260504010550 9 67 0.0 0.0 0.00 0.00 0.00 76 1025.6
20260504010047 9 65 0.0 0.0 0.00 0.00 0.00 74 1025.3
20260504005544 10 65 0.0 0.0 0.00 0.00 0.00 73 1025.4
20260504005041 10 65 0.0 1.6 0.00 0.00 0.00 72 1025.5
20260504004539 10 65 0.0 0.0 0.00 0.00 0.00 71 1025.4
20260504004036 10 65 0.0 0.0 0.00 0.00 0.00 70 1025.3
20260504003532 10 65 0.0 1.6 0.00 0.00 0.00 70 1025.1
20260504003029 11 61 0.0 0.0 0.00 0.00 0.00 68 1025.1
20260504002526 11 62 0.0 1.6 0.00 0.00 0.00 67 1025.1
20260504002023 11 54 0.0 0.0 0.00 0.00 0.00 66 1025.0
20260504001521 11 55 0.0 0.0 0.00 0.00 0.00 65 1025.0
20260504001017 11 104 1.6 3.2 0.00 0.00 0.00 65 1024.9
20260504000514 12 40 0.0 1.6 0.00 0.00 0.00 63 1025.0
20260504000011 12 26 0.0 0.0 0.00 0.00 0.00 61 1024.9
20260503235509 12 23 1.6 1.6 0.00 0.00 0.00 60 1025.0
20260503235006 12 42 0.0 0.0 0.00 0.00 0.00 60 1025.0
20260503234503 12 41 0.0 0.0 0.00 0.00 0.00 58 1025.1
20260503234002 13 42 0.0 0.0 0.00 0.00 0.00 56 1025.0
20260503233457 13 41 0.0 0.0 0.00 0.00 0.00 56 1024.8
20260503232954 13 41 0.0 0.0 0.00 0.00 0.00 55 1024.6
20260503232451 13 41 0.0 0.0 0.00 0.00 0.00 57 1024.7
20260503231949 13 41 0.0 0.0 0.00 0.00 0.00 54 1024.8
20260503231446 14 41 0.0 1.6 0.00 0.00 0.00 52 1025.1
20260503230942 14 26 0.0 0.0 0.00 0.00 0.00 53 1024.9
20260503230439 14 26 0.0 0.0 0.00 0.00 0.00 52 1025.1
20260503225937 15 26 0.0 0.0 0.00 0.00 0.00 52 1024.9
20260503225433 15 25 0.0 1.6 0.00 0.00 0.00 49 1025.0
20260503224929 15 24 0.0 1.6 0.00 0.00 0.00 47 1025.0
20260503224426 15 109 1.6 3.2 0.00 0.00 0.00 46 1025.0
20260503223924 16 358 3.2 3.2 0.00 0.00 0.00 44 1025.2
20260503223422 16 29 1.6 3.2 0.00 0.00 0.00 44 1025.2
20260503222917 16 280 4.8 8.0 0.00 0.00 0.00 35 1025.2
20260503222416 16 14 0.0 1.6 0.00 0.00 0.00 41 1025.3
20260503221914 18 136 6.4 8.0 0.00 0.00 0.00 37 1025.4
20260503221412 19 72 0.0 8.0 0.00 0.00 0.00 30 1025.5
20260503220908 19 56 1.6 3.2 0.00 0.00 0.00 32 1025.6
20260503220404 19 38 1.6 4.8 0.00 0.00 0.00 32 1025.4
20260503215902 20 316 3.2 4.8 0.00 0.00 0.00 33 1025.5
20260503215358 20 130 4.8 4.8 0.00 0.00 0.00 37 1025.7
20260503214856 20 89 1.6 4.8 0.00 0.00 0.00 31 1025.6
20260503214353 19 29 0.0 8.0 0.00 0.00 0.00 32 1025.7
20260503213850 20 327 1.6 3.2 0.00 0.00 0.00 31 1025.8
20260503213348 20 351 3.2 4.8 0.00 0.00 0.00 30 1025.7
20260503212845 19 112 0.0 8.0 0.00 0.00 0.00 31 1025.6
20260503212343 20 55 1.6 4.8 0.00 0.00 0.00 30 1025.7
20260503211839 19 49 0.0 4.8 0.00 0.00 0.00 32 1025.8
20260503211336 18 70 1.6 3.2 0.00 0.00 0.00 30 1025.8
20260503210831 20 288 8.0 8.0 0.00 0.00 0.00 30 1025.8
20260503210329 20 94 6.4 8.0 0.00 0.00 0.00 30 1026.0
20260503205824 19 28 1.6 4.8 0.00 0.00 0.00 31 1025.9
20260503205321 19 9 1.6 3.2 0.00 0.00 0.00 28 1026.0
20260503204817 19 31 1.6 8.0 0.00 0.00 0.00 32 1026.1
20260503204315 19 295 4.8 8.0 0.00 0.00 0.00 33 1025.9
20260503203812 18 285 8.0 11.3 0.00 0.00 0.00 33 1026.1
20260503203309 20 54 0.0 3.2 0.00 0.00 0.00 33 1026.2
20260503202806 20 33 3.2 9.7 0.00 0.00 0.00 31 1026.3
20260503202304 18 332 1.6 4.8 0.00 0.00 0.00 33 1026.7
20260503201802 18 55 0.0 3.2 0.00 0.00 0.00 30 1026.8
20260503201259 19 66 1.6 8.0 0.00 0.00 0.00 30 1026.8
20260503200756 17 218 4.8 11.3 0.00 0.00 0.00 32 1026.9
20260503200252 17 348 3.2 14.5 0.00 0.00 0.00 34 1027.0
20260503195749 18 331 11.3 14.5 0.00 0.00 0.00 31 1027.1
20260503195245 18 154 3.2 4.8 0.00 0.00 0.00 33 1026.8
20260503194744 18 22 1.6 4.8 0.00 0.00 0.00 32 1027.1
20260503194239 17 71 1.6 3.2 0.00 0.00 0.00 32 1027.4
20260503193735 18 16 4.8 4.8 0.00 0.00 0.00 32 1027.5
20260503193232 17 284 3.2 8.0 0.00 0.00 0.00 34 1027.5
20260503192727 17 141 8.0 11.3 0.00 0.00 0.00 34 1027.9
20260503192222 17 51 0.0 3.2 0.00 0.00 0.00 34 1028.0
20260503191720 18 281 9.7 12.9 0.00 0.00 0.00 35 1028.0
20260503191217 17 52 3.2 8.0 0.00 0.00 0.00 35 1028.1
20260503190714 18 306 8.0 9.7 0.00 0.00 0.00 33 1028.1
20260503190210 16 22 3.2 4.8 0.00 0.00 0.00 35 1028.4
20260503185708 17 323 9.7 11.3 0.00 0.00 0.00 35 1028.5
20260503185203 17 69 3.2 11.3 0.00 0.00 0.00 34 1028.3
20260503184658 17 82 1.6 3.2 0.00 0.00 0.00 38 1028.6